This is the latest recevied weather packets stored in our database for station/object KU4DD. If no packets are shown the sender has not sent any weather packets the latest 10 day(s).
| Time | Temp. | Humidity | Pressure | Rain* | Wind** | Luminosity | Snow |
|---|---|---|---|---|---|---|---|
| 1788154679 | 22.22° C | 97% | 1020 hPa | 0 mm | - | 0 W/m² | - |
| 1788149438 | 22.22° C | 97% | 1020.3 hPa | 0 mm | - | 0 W/m² | - |
| 1788148201 | 22.78° C | 96% | 1020 hPa | 0 mm | - | 0 W/m² | - |
| 1788147887 | 22.78° C | 96% | 1020 hPa | 0 mm | - | 0 W/m² | - |
| 1788147567 | 22.78° C | 96% | 1020 hPa | 0 mm | - | 0 W/m² | - |
| 1788145710 | 22.78° C | 96% | 1020 hPa | 0 mm | - | 0 W/m² | - |
| 1788136420 | 25.56° C | 89% | 1019.6 hPa | 0 mm | - | 0 W/m² | - |
| 1788134866 | 26.67° C | 85% | 1019.6 hPa | 0 mm | - | 0 W/m² | - |
| 1788131154 | 28.33° C | 77% | 1020 hPa | 0 mm | - | 62 W/m² | - |
| 1788129595 | 28.89° C | 74% | 1020 hPa | 0 mm | - | 83 W/m² | - |
| 1788128966 | 28.89° C | 74% | 1020 hPa | 0 mm | - | 77 W/m² | - |
| 1788128036 | 28.89° C | 73% | 1020 hPa | 0 mm | - | 97 W/m² | - |
| 1788127417 | 28.89° C | 75% | 1019.6 hPa | 0 mm | - | 151 W/m² | - |
| 1788127096 | 28.89° C | 74% | 1020 hPa | 0 mm | - | 148 W/m² | - |
| 1788126781 | 28.89° C | 74% | 1019.6 hPa | 0 mm | - | 144 W/m² | - |
| 1788124905 | 29.44° C | 69% | 1019.6 hPa | 0 mm | - | 258 W/m² | - |
| 1788122766 | 29.44° C | 70% | 1020 hPa | 0 mm | - | 346 W/m² | - |
| 1788122134 | 30° C | 67% | 1020 hPa | 0 mm | - | 308 W/m² | - |
| 1788119885 | 30° C | 69% | 1020.3 hPa | 0 mm | - | 526 W/m² | - |
| 1788119247 | 30° C | 68% | 1020.3 hPa | 0 mm | - | 534 W/m² | - |
| 1788117085 | 30° C | 68% | 1020.7 hPa | 0 mm | - | 596 W/m² | - |
| 1788116464 | 29.44° C | 68% | 1020.7 hPa | 0 mm | - | 380 W/m² | - |
| 1788116149 | 29.44° C | 71% | 1020.7 hPa | 0 mm | - | 619 W/m² | - |
| 1788115527 | 29.44° C | 71% | 1021 hPa | 0 mm | - | 308 W/m² | - |
| 1788113661 | 29.44° C | 70% | 1021.3 hPa | 0 mm | - | 448 W/m² | - |
* Rain latest hour (hover to see other rain measurements)
** Current wind speed in m/s (hover to see current wind gust speed)